TCX6V LGSK-EGKK

Flight info

Callsign TCX6V
Flight time 3h 8m
Altitude 34000
Route IBIDI UL617 TSL UN130 TALAS DCT ENFAR DCT MSR DCT PEVAL DCT LAMPO DCT GUNGO DCT SAFFA DCT ELMUR DCT RIPUS DCT DITON DCT HOC DCT LUL DCT RLP DCT ROTSI DCT KOTUN DCT NINAL DCT KESAX DCT KUNAV
Aircraft A321/M-SDE2E3FGHIJ1J3J4J7M3P2RWXYZ/LB1D1

Departure

Time 2026-05-04 13:34
Airport Skiathos Island National Airport (LGSK)

Arrival

Time 2026-05-04 16:42
Airport London Gatwick Airport (EGKK)
Time Latitude Longitude Altitude Speed Heading
2026-05-04 13:01 39.17875 23.50223 40 ft 0 kts 289°
2026-05-04 13:26 39.17870 23.50238 38 ft 4 kts 289°
2026-05-04 13:26 39.17862 23.50270 37 ft 2 kts 289°
2026-05-04 13:26 39.17857 23.50299 36 ft 4 kts 249°
2026-05-04 13:27 39.17874 23.50320 35 ft 4 kts 200°
2026-05-04 13:27 39.17885 23.50325 36 ft 1 kts 199°
2026-05-04 13:27 39.17886 23.50325 36 ft 1 kts 199°
2026-05-04 13:29 39.17883 23.50324 36 ft 3 kts 199°
2026-05-04 13:29 39.17825 23.50298 39 ft 14 kts 199°
2026-05-04 13:29 39.17731 23.50267 39 ft 13 kts 167°
2026-05-04 13:30 39.17678 23.50336 41 ft 9 kts 160°
2026-05-04 13:30 39.17625 23.50329 42 ft 7 kts 196°
2026-05-04 13:30 39.17579 23.50311 41 ft 7 kts 197°
2026-05-04 13:30 39.17532 23.50292 40 ft 7 kts 199°
2026-05-04 13:31 39.17480 23.50266 39 ft 9 kts 200°
2026-05-04 13:31 39.17414 23.50235 37 ft 12 kts 200°
2026-05-04 13:31 39.17320 23.50194 30 ft 15 kts 199°
2026-05-04 13:31 39.17213 23.50146 24 ft 1 kts 199°
2026-05-04 13:32 39.17182 23.50132 22 ft 10 kts 199°
2026-05-04 13:32 39.17087 23.50092 18 ft 14 kts 194°
2026-05-04 13:32 39.17023 23.50075 11 ft 7 kts 248°
2026-05-04 13:32 39.17032 23.50065 13 ft 0 kts
2026-05-04 13:33 39.17039 23.50069 13 ft 3 kts 20°
2026-05-04 13:33 39.17042 23.50071 14 ft 0 kts 18°
2026-05-04 13:33 39.17074 23.50084 17 ft 28 kts 18°
2026-05-04 13:33 39.17536 23.50291 40 ft 108 kts 19°
2026-05-04 13:34 39.18427 23.50684 199 ft 153 kts 19°
2026-05-04 13:34 39.19423 23.51064 1084 ft 145 kts
2026-05-04 13:34 39.20425 23.51152 1674 ft 144 kts 359°
2026-05-04 13:34 39.21473 23.51223 1819 ft 164 kts
2026-05-04 13:35 39.22705 23.51317 1956 ft 186 kts
2026-05-04 13:35 39.25559 23.51549 2271 ft 229 kts
2026-05-04 13:35 39.27241 23.51698 2693 ft 245 kts
2026-05-04 13:36 39.28954 23.51856 3447 ft 249 kts
2026-05-04 13:36 39.30666 23.52018 4224 ft 251 kts
2026-05-04 13:36 39.32408 23.52182 5039 ft 252 kts
2026-05-04 13:36 39.34170 23.52346 5755 ft 256 kts
2026-05-04 13:37 39.35958 23.52421 6481 ft 259 kts 355°
2026-05-04 13:37 39.37737 23.52004 7144 ft 262 kts 343°
2026-05-04 13:37 39.39463 23.51215 7831 ft 265 kts 341°
2026-05-04 13:37 39.40642 23.50671 8296 ft 267 kts 341°
2026-05-04 13:38 39.42970 23.49595 9207 ft 270 kts 341°
2026-05-04 13:38 39.44745 23.48743 9897 ft 273 kts 341°
2026-05-04 13:38 39.46543 23.47868 10400 ft 283 kts 341°
2026-05-04 13:38 39.48455 23.46941 10531 ft 304 kts 341°
2026-05-04 13:39 39.50501 23.45949 10665 ft 324 kts 341°
2026-05-04 13:39 39.52657 23.44899 11032 ft 335 kts 341°
2026-05-04 13:39 39.54851 23.43831 11595 ft 339 kts 341°
2026-05-04 13:39 39.57070 23.42752 12185 ft 343 kts 341°
2026-05-04 13:40 39.59316 23.41658 12799 ft 346 kts 342°
2026-05-04 13:40 39.61580 23.40557 13402 ft 350 kts 342°
2026-05-04 13:40 39.63869 23.39444 13999 ft 353 kts 342°
2026-05-04 13:40 39.66183 23.38321 14520 ft 357 kts 342°
2026-05-04 13:41 39.68517 23.37185 15024 ft 361 kts 341°
2026-05-04 13:41 39.70879 23.36032 15532 ft 365 kts 341°
2026-05-04 13:41 39.73268 23.34864 16033 ft 368 kts 341°
2026-05-04 13:42 39.78114 23.32492 17003 ft 376 kts 341°
2026-05-04 13:42 39.80578 23.31287 17475 ft 380 kts 341°
2026-05-04 13:42 39.83064 23.30067 17956 ft 384 kts 341°
2026-05-04 13:42 39.85576 23.28833 18417 ft 388 kts 340°
2026-05-04 13:43 39.88112 23.27588 18814 ft 391 kts 341°
2026-05-04 13:43 39.90667 23.26334 19219 ft 394 kts 341°
2026-05-04 13:43 39.92402 23.25482 19506 ft 396 kts 341°
2026-05-04 13:43 39.95830 23.23801 20038 ft 400 kts 341°
2026-05-04 13:44 39.97562 23.22951 20302 ft 402 kts 341°
2026-05-04 13:44 40.00182 23.21666 20708 ft 404 kts 341°
2026-05-04 13:44 40.02824 23.20368 21101 ft 407 kts 341°
2026-05-04 13:44 40.05486 23.19054 21490 ft 410 kts 341°
2026-05-04 13:45 40.08164 23.17728 21885 ft 413 kts 341°
2026-05-04 13:45 40.10865 23.16393 22267 ft 416 kts 341°
2026-05-04 13:45 40.13583 23.15049 22651 ft 419 kts 341°
2026-05-04 13:45 40.16318 23.13696 23020 ft 422 kts 341°
2026-05-04 13:46 40.19078 23.12333 23386 ft 425 kts 341°
2026-05-04 13:46 40.21856 23.10961 23744 ft 428 kts 341°
2026-05-04 13:46 40.24644 23.09583 24089 ft 429 kts 340°
2026-05-04 13:46 40.27444 23.08197 24394 ft 432 kts 340°
2026-05-04 13:47 40.30261 23.06798 24727 ft 433 kts 340°
2026-05-04 13:47 40.33081 23.05391 25072 ft 435 kts 340°
2026-05-04 13:47 40.35911 23.03975 25406 ft 436 kts 340°
2026-05-04 13:47 40.38752 23.02556 25740 ft 437 kts 340°
2026-05-04 13:48 40.41589 23.01115 26082 ft 439 kts 338°
2026-05-04 13:48 40.44295 22.99225 26396 ft 442 kts 328°
2026-05-04 13:48 40.46733 22.96759 26714 ft 445 kts 318°
2026-05-04 13:48 40.48833 22.93765 27022 ft 448 kts 309°
2026-05-04 13:49 40.50725 22.90514 27335 ft 449 kts 308°
2026-05-04 13:49 40.52630 22.87247 27640 ft 450 kts 309°
2026-05-04 13:49 40.54539 22.83983 27936 ft 452 kts 309°
2026-05-04 13:49 40.56461 22.80701 28224 ft 453 kts 309°
2026-05-04 13:50 40.58384 22.77408 28500 ft 454 kts 309°
2026-05-04 13:50 40.60295 22.74131 29053 ft 449 kts 309°
2026-05-04 13:50 40.62190 22.70875 29463 ft 448 kts 310°
2026-05-04 13:50 40.64081 22.67620 29810 ft 447 kts 310°
2026-05-04 13:51 40.65966 22.64370 30216 ft 445 kts 310°
2026-05-04 13:51 40.67838 22.61139 30562 ft 443 kts 310°
2026-05-04 13:51 40.69702 22.57920 30912 ft 441 kts 310°
2026-05-04 13:51 40.71532 22.54759 31258 ft 439 kts 310°
2026-05-04 13:52 40.75236 22.48349 31977 ft 434 kts 310°
2026-05-04 13:52 40.77060 22.45185 32309 ft 432 kts 310°
2026-05-04 13:52 40.78841 22.42097 32798 ft 426 kts 310°
2026-05-04 13:53 40.80653 22.38959 33166 ft 424 kts 311°
2026-05-04 13:53 40.82437 22.35865 33493 ft 422 kts 311°
2026-05-04 13:53 40.84187 22.32823 33801 ft 421 kts 310°
2026-05-04 13:54 40.87705 22.26687 34119 ft 416 kts 310°
2026-05-04 13:54 40.89444 22.23653 34099 ft 413 kts 311°
2026-05-04 13:55 40.94643 22.14573 34109 ft 413 kts 310°
2026-05-04 13:55 40.99793 22.05533 34104 ft 408 kts 311°
2026-05-04 13:56 41.03204 21.99546 34107 ft 407 kts 311°
2026-05-04 13:57 41.08300 21.90541 34107 ft 407 kts 310°
2026-05-04 13:58 41.14672 21.78039 34079 ft 410 kts 308°
2026-05-04 13:58 41.19395 21.68646 34103 ft 409 kts 308°
2026-05-04 13:59 41.22574 21.62394 34103 ft 408 kts 308°
2026-05-04 14:00 41.27331 21.53012 34108 ft 408 kts 308°
2026-05-04 14:00 41.32072 21.43631 34107 ft 407 kts 308°
2026-05-04 14:01 41.35229 21.37365 34106 ft 407 kts 308°
2026-05-04 14:02 41.39952 21.27957 34106 ft 407 kts 308°
2026-05-04 14:02 41.43089 21.21671 34101 ft 408 kts 308°
2026-05-04 14:03 41.46240 21.15371 34092 ft 409 kts 308°
2026-05-04 14:03 41.49392 21.09069 34071 ft 408 kts 308°
2026-05-04 14:04 41.54116 20.99603 34096 ft 409 kts 308°
2026-05-04 14:04 41.57248 20.93270 34108 ft 409 kts 308°
2026-05-04 14:05 41.61942 20.83763 34119 ft 409 kts 308°
2026-05-04 14:06 41.65074 20.77427 34099 ft 408 kts 308°
2026-05-04 14:06 41.68215 20.71077 34092 ft 410 kts 308°
2026-05-04 14:07 41.71366 20.64677 34092 ft 413 kts 307°
2026-05-04 14:07 41.74499 20.58279 34094 ft 415 kts 307°
2026-05-04 14:08 41.77692 20.51831 34106 ft 415 kts 309°
2026-05-04 14:08 41.81184 20.45681 34086 ft 414 kts 312°
2026-05-04 14:09 41.86621 20.36663 34101 ft 414 kts 312°
2026-05-04 14:10 41.91951 20.27522 34110 ft 415 kts 311°
2026-05-04 14:10 41.95462 20.21371 34118 ft 415 kts 311°
2026-05-04 14:11 41.98981 20.15219 34116 ft 415 kts 311°
2026-05-04 14:11 42.04260 20.06049 34102 ft 415 kts 310°
2026-05-04 14:12 42.07778 19.99895 34124 ft 415 kts 311°
2026-05-04 14:13 42.13065 19.90652 34118 ft 415 kts 311°
2026-05-04 14:13 42.16577 19.84475 34121 ft 415 kts 310°
2026-05-04 14:14 42.20099 19.78293 34095 ft 416 kts 310°
2026-05-04 14:14 42.25382 19.68999 34097 ft 416 kts 310°
2026-05-04 14:15 42.32405 19.56575 34094 ft 417 kts 310°
2026-05-04 14:16 42.37679 19.47226 34072 ft 418 kts 310°
2026-05-04 14:17 42.42935 19.37864 34054 ft 419 kts 309°
2026-05-04 14:18 42.48211 19.28433 34063 ft 419 kts 309°
2026-05-04 14:19 42.55253 19.15808 34082 ft 420 kts 309°
2026-05-04 14:19 42.58769 19.09483 34080 ft 419 kts 309°
2026-05-04 14:20 42.62271 19.03160 34092 ft 419 kts 309°
2026-05-04 14:20 42.65775 18.96828 34102 ft 420 kts 309°
2026-05-04 14:21 42.71035 18.87305 34102 ft 420 kts 309°
2026-05-04 14:21 42.74541 18.80938 34109 ft 421 kts 309°
2026-05-04 14:22 42.78045 18.74564 34099 ft 420 kts 308°
2026-05-04 14:22 42.81538 18.68189 34122 ft 420 kts 308°
2026-05-04 14:23 42.86757 18.58631 34126 ft 419 kts 308°
2026-05-04 14:24 42.90229 18.52261 34135 ft 419 kts 308°
2026-05-04 14:24 42.93709 18.45867 34120 ft 420 kts 308°
2026-05-04 14:25 42.97165 18.39511 34113 ft 420 kts 308°
2026-05-04 14:25 43.02371 18.29904 34132 ft 419 kts 308°
2026-05-04 14:26 43.05830 18.23497 34138 ft 419 kts 308°
2026-05-04 14:26 43.09288 18.17080 34130 ft 419 kts 308°
2026-05-04 14:27 43.12766 18.10618 34122 ft 419 kts 308°
2026-05-04 14:27 43.16190 18.04234 34119 ft 419 kts 308°
2026-05-04 14:28 43.19637 17.97784 34107 ft 420 kts 308°
2026-05-04 14:28 43.23089 17.91318 34101 ft 421 kts 308°
2026-05-04 14:29 43.29825 17.78153 34101 ft 422 kts 305°
2026-05-04 14:30 43.33009 17.71376 34099 ft 422 kts 304°
2026-05-04 14:31 43.37802 17.61241 34115 ft 421 kts 305°
2026-05-04 14:32 43.44233 17.47763 34103 ft 421 kts 305°
2026-05-04 14:32 43.47437 17.41005 34106 ft 421 kts 305°
2026-05-04 14:33 43.50633 17.34252 34099 ft 421 kts 304°
2026-05-04 14:33 43.53287 17.28629 34096 ft 421 kts 304°
2026-05-04 14:34 43.56483 17.21857 34098 ft 421 kts 304°
2026-05-04 14:34 43.59669 17.15080 34101 ft 421 kts 304°
2026-05-04 14:35 43.62850 17.08293 34102 ft 421 kts 304°
2026-05-04 14:35 43.66029 17.01502 34092 ft 421 kts 304°
2026-05-04 14:36 43.69206 16.94690 34093 ft 422 kts 304°
2026-05-04 14:36 43.72385 16.87872 34096 ft 422 kts 304°
2026-05-04 14:37 43.75563 16.81034 34098 ft 423 kts 304°
2026-05-04 14:37 43.78740 16.74189 34108 ft 423 kts 304°
2026-05-04 14:38 43.81915 16.67328 34097 ft 423 kts 303°
2026-05-04 14:38 43.85088 16.60444 34101 ft 424 kts 303°
2026-05-04 14:39 43.88238 16.53596 34107 ft 425 kts 303°
2026-05-04 14:39 43.91413 16.46685 34112 ft 425 kts 303°
2026-05-04 14:40 43.96172 16.36302 34099 ft 426 kts 303°
2026-05-04 14:40 43.99346 16.29347 34101 ft 427 kts 303°
2026-05-04 14:41 44.02517 16.22368 34107 ft 427 kts 303°
2026-05-04 14:42 44.08859 16.08404 34109 ft 428 kts 302°
2026-05-04 14:42 44.12033 16.01391 34100 ft 429 kts 302°
2026-05-04 14:43 44.15210 15.94361 34103 ft 430 kts 302°
2026-05-04 14:43 44.18389 15.87306 34108 ft 430 kts 302°
2026-05-04 14:44 44.21559 15.80231 34109 ft 431 kts 302°
2026-05-04 14:44 44.24733 15.73133 34101 ft 432 kts 302°
2026-05-04 14:45 44.27916 15.66004 34105 ft 434 kts 302°
2026-05-04 14:45 44.31108 15.58850 34105 ft 434 kts 302°
2026-05-04 14:46 44.34298 15.51691 34127 ft 434 kts 302°
2026-05-04 14:46 44.37470 15.44528 34115 ft 434 kts 301°
2026-05-04 14:47 44.40633 15.37371 34108 ft 436 kts 301°
2026-05-04 14:47 44.43820 15.30160 34108 ft 436 kts 301°
2026-05-04 14:48 44.47003 15.22920 34107 ft 437 kts 301°
2026-05-04 14:48 44.50184 15.15665 34111 ft 437 kts 300°
2026-05-04 14:49 44.53365 15.08400 34119 ft 437 kts 300°
2026-05-04 14:49 44.56544 15.01130 34123 ft 437 kts 300°
2026-05-04 14:50 44.59715 14.93847 34132 ft 437 kts 300°
2026-05-04 14:50 44.62878 14.86554 34126 ft 438 kts 300°
2026-05-04 14:51 44.66044 14.79243 34120 ft 438 kts 300°
2026-05-04 14:51 44.69212 14.71922 34122 ft 439 kts 300°
2026-05-04 14:52 44.72379 14.64578 34123 ft 439 kts 300°
2026-05-04 14:52 44.75546 14.57235 34123 ft 439 kts 300°
2026-05-04 14:53 44.78696 14.49884 34130 ft 439 kts 299°
2026-05-04 14:53 44.81849 14.42524 34137 ft 438 kts 299°
2026-05-04 14:54 44.84991 14.35166 34136 ft 438 kts 299°
2026-05-04 14:54 44.88123 14.27797 34133 ft 438 kts 300°
2026-05-04 14:55 44.91255 14.20412 34117 ft 439 kts 298°
2026-05-04 14:55 44.94393 14.13007 34114 ft 440 kts 298°
2026-05-04 14:56 44.97539 14.05578 34105 ft 441 kts 298°
2026-05-04 14:56 45.00672 13.98139 34114 ft 441 kts 298°
2026-05-04 14:57 45.03806 13.90674 34117 ft 441 kts 298°
2026-05-04 14:57 45.06919 13.83249 34114 ft 442 kts 298°
2026-05-04 14:58 45.10052 13.75753 34105 ft 442 kts 298°
2026-05-04 14:58 45.13176 13.68247 34105 ft 443 kts 298°
2026-05-04 14:59 45.16298 13.60726 34102 ft 443 kts 298°
2026-05-04 15:00 45.20979 13.49424 34092 ft 444 kts 298°
2026-05-04 15:00 45.24099 13.41861 34092 ft 444 kts 298°
2026-05-04 15:01 45.28769 13.30511 34089 ft 444 kts 298°
2026-05-04 15:01 45.32022 13.23054 34090 ft 446 kts 304°
2026-05-04 15:02 45.35758 13.16016 34094 ft 445 kts 304°
2026-05-04 15:02 45.39444 13.09017 34082 ft 445 kts 304°
2026-05-04 15:03 45.43140 13.01959 34084 ft 445 kts 304°
2026-05-04 15:03 45.46837 12.94871 34035 ft 447 kts 304°
2026-05-04 15:04 45.50566 12.87732 34039 ft 451 kts 304°
2026-05-04 15:04 45.54316 12.80532 34039 ft 453 kts 304°
2026-05-04 15:05 45.58072 12.73299 34075 ft 453 kts 304°
2026-05-04 15:05 45.61813 12.66069 34082 ft 452 kts 303°
2026-05-04 15:06 45.65543 12.58846 34088 ft 451 kts 304°
2026-05-04 15:07 45.71116 12.48017 34098 ft 450 kts 303°
2026-05-04 15:07 45.74822 12.40799 34092 ft 450 kts 303°
2026-05-04 15:08 45.78522 12.33582 34089 ft 449 kts 303°
2026-05-04 15:08 45.82215 12.26356 34095 ft 449 kts 303°
2026-05-04 15:09 45.85901 12.19114 34082 ft 449 kts 303°
2026-05-04 15:09 45.89573 12.11873 34083 ft 449 kts 303°
2026-05-04 15:10 45.95089 12.00976 34083 ft 449 kts 303°
2026-05-04 15:11 46.00575 11.90122 34097 ft 450 kts 303°
2026-05-04 15:11 46.04236 11.82828 34097 ft 450 kts 303°
2026-05-04 15:12 46.07899 11.75525 34091 ft 450 kts 303°
2026-05-04 15:12 46.11557 11.68220 34098 ft 450 kts 303°
2026-05-04 15:13 46.15190 11.60887 34091 ft 449 kts 302°
2026-05-04 15:13 46.18809 11.53527 34096 ft 449 kts 302°
2026-05-04 15:14 46.22421 11.46164 34097 ft 450 kts 302°
2026-05-04 15:14 46.26042 11.38806 34082 ft 449 kts 302°
2026-05-04 15:15 46.29636 11.31485 34078 ft 449 kts 302°
2026-05-04 15:15 46.33248 11.24113 34207 ft 449 kts 302°
2026-05-04 15:16 46.38646 11.13016 34204 ft 449 kts 302°
2026-05-04 15:16 46.42239 11.05600 34085 ft 450 kts 302°
2026-05-04 15:17 46.44039 11.01893 34096 ft 450 kts 302°
2026-05-04 15:17 46.49458 10.90777 34112 ft 450 kts 302°
2026-05-04 15:18 46.53065 10.83362 34486 ft 448 kts 302°
2026-05-04 15:18 46.54852 10.79677 34806 ft 446 kts 302°
2026-05-04 15:19 46.58408 10.72326 35381 ft 443 kts 302°
2026-05-04 15:19 46.60178 10.68658 35642 ft 442 kts 302°
2026-05-04 15:19 46.63700 10.61342 36069 ft 441 kts 302°
2026-05-04 15:20 46.67211 10.54030 36091 ft 439 kts 302°
2026-05-04 15:20 46.70699 10.46738 36100 ft 439 kts 301°
2026-05-04 15:21 46.73999 10.39274 36099 ft 436 kts 292°
2026-05-04 15:22 46.77535 10.27095 36096 ft 434 kts 290°
2026-05-04 15:22 46.81032 10.14960 36123 ft 435 kts 290°
2026-05-04 15:23 46.83358 10.06816 36128 ft 435 kts 289°
2026-05-04 15:23 46.85680 9.98672 36119 ft 434 kts 289°
2026-05-04 15:24 46.89932 9.83678 36096 ft 434 kts 289°
2026-05-04 15:25 46.92240 9.75516 36086 ft 434 kts 289°
2026-05-04 15:26 46.95664 9.63291 36066 ft 435 kts 289°
2026-05-04 15:26 46.99112 9.50944 36041 ft 435 kts 289°
2026-05-04 15:27 47.02530 9.38672 36037 ft 436 kts 289°
2026-05-04 15:28 47.05945 9.26312 36032 ft 436 kts 289°
2026-05-04 15:29 47.09349 9.13922 36019 ft 436 kts 289°
2026-05-04 15:30 47.17220 8.84914 36003 ft 437 kts 288°
2026-05-04 15:31 47.20373 8.72410 35998 ft 436 kts 287°
2026-05-04 15:32 47.25653 8.51463 36000 ft 437 kts 287°
2026-05-04 15:34 47.30930 8.30502 36011 ft 437 kts 287°
2026-05-04 15:34 47.34074 8.17863 36011 ft 438 kts 286°
2026-05-04 15:35 47.37200 8.05210 36007 ft 438 kts 286°
2026-05-04 15:36 47.40307 7.92592 36021 ft 438 kts 286°
2026-05-04 15:36 47.42390 7.84081 36015 ft 438 kts 286°
2026-05-04 15:37 47.44437 7.75674 36025 ft 438 kts 285°
2026-05-04 15:37 47.46483 7.67204 36040 ft 437 kts 283°
2026-05-04 15:38 47.47985 7.58542 36044 ft 435 kts 280°
2026-05-04 15:38 47.49455 7.49865 36052 ft 435 kts 280°
2026-05-04 15:39 47.50917 7.41193 36032 ft 435 kts 279°
2026-05-04 15:40 47.53069 7.28167 36034 ft 434 kts 279°
2026-05-04 15:40 47.54488 7.19480 36039 ft 434 kts 279°
2026-05-04 15:41 47.55913 7.10795 36061 ft 434 kts 279°
2026-05-04 15:41 47.57332 7.02097 36057 ft 434 kts 279°
2026-05-04 15:42 47.58739 6.93395 36049 ft 434 kts 279°
2026-05-04 15:42 47.60138 6.84690 36057 ft 434 kts 279°
2026-05-04 15:43 47.61521 6.76043 36050 ft 435 kts 279°
2026-05-04 15:43 47.62913 6.67325 36065 ft 435 kts 278°
2026-05-04 15:44 47.64298 6.58592 36055 ft 435 kts 278°
2026-05-04 15:44 47.65669 6.49857 36052 ft 435 kts 278°
2026-05-04 15:45 47.67037 6.41120 36048 ft 435 kts 278°
2026-05-04 15:45 47.68397 6.32375 36051 ft 435 kts 278°
2026-05-04 15:46 47.69922 6.23663 36061 ft 438 kts 282°
2026-05-04 15:46 47.71803 6.15051 36054 ft 439 kts 284°
2026-05-04 15:47 47.73739 6.06447 36051 ft 439 kts 283°
2026-05-04 15:47 47.75595 5.97816 36046 ft 438 kts 282°
2026-05-04 15:48 47.77393 5.89167 36068 ft 438 kts 282°
2026-05-04 15:48 47.80086 5.76170 36053 ft 438 kts 282°
2026-05-04 15:49 47.81887 5.67507 36042 ft 438 kts 282°
2026-05-04 15:49 47.83690 5.58841 36039 ft 438 kts 282°
2026-05-04 15:50 47.85477 5.50224 36034 ft 438 kts 282°
2026-05-04 15:50 47.87255 5.41547 36039 ft 438 kts 282°
2026-05-04 15:51 47.89023 5.32795 36037 ft 438 kts 282°
2026-05-04 15:51 47.91360 5.24426 36015 ft 448 kts 297°
2026-05-04 15:52 47.95354 5.17196 36008 ft 455 kts 308°
2026-05-04 15:52 47.99615 5.10208 36002 ft 455 kts 307°
2026-05-04 15:53 48.03853 5.03164 36018 ft 456 kts 307°
2026-05-04 15:53 48.08091 4.96115 36010 ft 456 kts 307°
2026-05-04 15:54 48.12333 4.89064 36010 ft 456 kts 307°
2026-05-04 15:54 48.16576 4.82002 36006 ft 457 kts 307°
2026-05-04 15:55 48.20825 4.74912 35994 ft 457 kts 307°
2026-05-04 15:55 48.25067 4.67797 36009 ft 457 kts 307°
2026-05-04 15:56 48.29306 4.60679 36000 ft 457 kts 307°
2026-05-04 15:56 48.33544 4.53551 35991 ft 457 kts 307°
2026-05-04 15:57 48.37772 4.46412 35986 ft 458 kts 307°
2026-05-04 15:57 48.42004 4.39252 35981 ft 458 kts 307°
2026-05-04 15:58 48.46238 4.32070 35978 ft 458 kts 307°
2026-05-04 15:58 48.50460 4.24880 35989 ft 458 kts 307°
2026-05-04 15:59 48.54688 4.17665 35981 ft 458 kts 307°
2026-05-04 15:59 48.58878 4.10495 35976 ft 459 kts 307°
2026-05-04 16:00 48.63093 4.03262 35972 ft 459 kts 307°
2026-05-04 16:00 48.67307 3.95999 35972 ft 459 kts 307°
2026-05-04 16:01 48.71515 3.88717 35975 ft 459 kts 307°
2026-05-04 16:01 48.75881 3.81617 35980 ft 462 kts 311°
2026-05-04 16:02 48.80538 3.74871 35986 ft 463 kts 312°
2026-05-04 16:03 48.87525 3.64739 35989 ft 463 kts 311°
2026-05-04 16:03 48.92099 3.57867 35988 ft 462 kts 310°
2026-05-04 16:04 48.96660 3.50978 36007 ft 462 kts 311°
2026-05-04 16:04 49.03516 3.40633 36006 ft 462 kts 311°
2026-05-04 16:05 49.08084 3.33723 35996 ft 462 kts 311°
2026-05-04 16:06 49.14928 3.23355 35992 ft 463 kts 311°
2026-05-04 16:07 49.24012 3.09510 36005 ft 462 kts 311°
2026-05-04 16:08 49.33100 2.95562 35994 ft 462 kts 311°
2026-05-04 16:09 49.44440 2.78065 35986 ft 462 kts 311°
2026-05-04 16:10 49.53504 2.63999 36001 ft 463 kts 311°
2026-05-04 16:11 49.62479 2.49797 35979 ft 461 kts 308°
2026-05-04 16:12 49.74799 2.27024 35969 ft 461 kts 307°
2026-05-04 16:13 49.82398 2.13176 35970 ft 461 kts 307°
2026-05-04 16:14 49.91309 1.96734 35969 ft 461 kts 307°
2026-05-04 16:16 50.00915 1.78898 35981 ft 461 kts 307°
2026-05-04 16:17 50.11848 1.60937 35488 ft 449 kts 316°
2026-05-04 16:18 50.18849 1.51455 34178 ft 440 kts 315°
2026-05-04 16:18 50.21139 1.48330 33822 ft 436 kts 315°
2026-05-04 16:19 50.27905 1.39074 30882 ft 424 kts 316°
2026-05-04 16:19 50.32264 1.33112 28965 ft 409 kts 315°
2026-05-04 16:20 50.38528 1.24507 26057 ft 390 kts 316°
2026-05-04 16:20 50.42543 1.18954 24272 ft 380 kts 316°
2026-05-04 16:21 50.48371 1.10881 21748 ft 365 kts 317°
2026-05-04 16:22 50.52102 1.05544 20665 ft 359 kts 311°
2026-05-04 16:22 50.57188 0.96963 19079 ft 348 kts 312°
2026-05-04 16:23 50.62057 0.88747 17552 ft 340 kts 312°
2026-05-04 16:24 50.68395 0.77934 15669 ft 331 kts 310°
2026-05-04 16:25 50.71275 0.72354 14676 ft 326 kts 307°
2026-05-04 16:26 50.76809 0.61285 12714 ft 317 kts 308°
2026-05-04 16:26 50.80848 0.53326 11140 ft 294 kts 308°
2026-05-04 16:27 50.83403 0.48284 10421 ft 293 kts 308°
2026-05-04 16:28 50.87212 0.40786 9089 ft 291 kts 308°
2026-05-04 16:28 50.90929 0.33407 7803 ft 277 kts 308°
2026-05-04 16:29 50.95658 0.23993 6095 ft 266 kts 309°
2026-05-04 16:30 50.99052 0.17065 5018 ft 263 kts 309°
2026-05-04 16:31 51.01237 0.12382 5000 ft 266 kts 298°
2026-05-04 16:31 51.01666 0.04042 4997 ft 239 kts 266°
2026-05-04 16:32 51.01231 -0.03819 5008 ft 238 kts 266°
2026-05-04 16:33 51.00965 -0.09051 5012 ft 239 kts 266°
2026-05-04 16:33 51.00692 -0.14297 5008 ft 238 kts 266°
2026-05-04 16:34 51.00417 -0.19522 5009 ft 237 kts 266°
2026-05-04 16:34 51.00459 -0.22123 4991 ft 235 kts 282°
2026-05-04 16:35 51.01632 -0.29635 4078 ft 232 kts 286°
2026-05-04 16:35 51.02879 -0.37093 4009 ft 234 kts 286°
2026-05-04 16:36 51.03300 -0.39583 4011 ft 233 kts 286°
2026-05-04 16:36 51.04084 -0.44258 3673 ft 205 kts 286°
2026-05-04 16:37 51.04778 -0.48386 3003 ft 186 kts 294°
2026-05-04 16:37 51.05616 -0.49865 2999 ft 184 kts 335°
2026-05-04 16:37 51.07929 -0.49058 3036 ft 183 kts 41°
2026-05-04 16:38 51.09715 -0.46175 3010 ft 183 kts 46°
2026-05-04 16:39 51.11735 -0.41171 2994 ft 185 kts 76°
2026-05-04 16:39 51.12273 -0.37301 2367 ft 168 kts 76°
2026-05-04 16:40 51.12767 -0.33763 1903 ft 161 kts 77°
2026-05-04 16:40 51.13252 -0.30290 1470 ft 160 kts 76°
2026-05-04 16:41 51.13726 -0.26883 1024 ft 157 kts 76°
2026-05-04 16:41 51.14433 -0.21824 406 ft 155 kts 76°
2026-05-04 16:42 51.15001 -0.17714 216 ft 39 kts 77°
2026-05-04 16:43 51.15147 -0.17219 210 ft 14 kts 345°
2026-05-04 16:43 51.15181 -0.17246 212 ft 0 kts 328°
2026-05-04 16:44 51.15208 -0.17273 211 ft 7 kts 328°
2026-05-04 16:45 51.15356 -0.17372 204 ft 11 kts 347°
2026-05-04 16:46 51.15549 -0.17439 204 ft 8 kts
2026-05-04 16:46 51.15607 -0.17285 212 ft 9 kts 75°
2026-05-04 16:47 51.15639 -0.17075 208 ft 12 kts 77°
2026-05-04 16:47 51.15678 -0.16788 214 ft 12 kts 77°
2026-05-04 16:48 51.15758 -0.16746 209 ft 0 kts 347°